SCP
-0 0 0 0 0 -0 -0 -0 0 0 -0 -0 -0 -0 -0 -0 -0 -0 -0 -0 -0 -0 -0 -0 -0 -0 -0 -0 -0 -0 -0 -0 -0 -0 -0 -0 -0 -0 -0 0 0 0 0
0 0 -0 0 -0 0 0 0 0 0 0 0 0 -0 -0 0 0 0 0 0 0 -0 -0 -0 -0 -0 -0 -0 -0 -0 0 -0 -0 -0 -0 -0 -0 -0 -0 0 0 0 0
0 0 0 0 0 0 0 0 0 0 0 0 0 0 0 0 0 0 0 0 0 -0 0 -0 -0 -0 0 0 -0 -0 -0 -0 -0 0 -0 0 0 0 0 0 0 0 0
0 0 0 0 0 0 0 0 0 0 0 0 0 0 0 0 0 0 0 0 0 0 0 0 0 0 0 0 0 0 0 0 0 0 -0 0 0 0 0 0 0 0 0
0 0 0 0 0 0 0 0 0 0 0 0 0 0 0 0 0 0 0 0 0 0 0 0 0 0 0 0 0 0 0 0 0 -0 0 0 0 0 0 0 0 0 0
0 0 0 0 0 0 0 0 0 0 0 0 0 0 0 0 0 0 0 0 0 0 0 0 0 0 0 0 0 0 0 0 0 0 0 0 0 0 0 0 0 0 0
0 0 0 0 0 0 0 0 0 0 0 0 0 0 0 0 0 0 0 0 0 0 0 0 0 0 0 0 0 0 0 0 0 0 0 0 0 0 0 0 0 0 0
0 0 0 0 0 0 0 0 0 0 0 0 0 0 0 0 0 0 0 0 0 0 0 0 0 0 0 0 0 0 0 0 0 0 0 0 0 0 0 0 0 0 0
0 0 0 0 0 0 0 0 0 0 0 0 0 0 0 0 0 0 0 0 0 0 0 0 0 0 0 0 0 0 0 0 0 0 0 0 0 0 0 0 0 0 0
0 0 -0 0 0 0 0 0 0 0 0 0 0 0 0 0 0 0 0 0 0 0 0 0 0 0 0 0 0 0 0 0 0 0 0 0 0 0 0 0 0 0 0
0 0 0 0 0 0 0 0 0 0 0 0 0 0 0 0 0 0 0 0 0 0 0 0 0 0 0 0 0 0 0 0 0 0 0 0 0 0 0 0 0 0 0
0 0 0 0 0 0 0 0 0 0 0 0 0 0 0 0 0 0 0 0 0 0 0 0 0 0 0 0 0 0 0 0 0 0 0 0 0 0 0 0 0 0 0
0 0 0 0 0 0 0 0 0 0 0 0 0 0 0 0 0 0 0 0 0 0 0 0 0 0 0 0 0 0 0 0 0 0 0 0 0 0 0 0 0 0 0
0 0 0 0 0 0 0 0 0 0 0 0 0 0 0 0 0 0 0 0 0 0 0 0 0 0 0 0 0 0 0 0 0 0 0 0 0 0 0 0 0 0 0
0 0 0 0 0 0 0 0 0 0 0 0 0 0 0 0 0 0 0 0 0 0 0 0 0 0 0 0 0 0 0 0 0 0 0 0 0 0 0 0 0 0 0
0 0 0 0 0 0 0 0 0 0 0 0 0 0 0 0 0 0 0 0 0 0 0 0 0 0 0 0 0 0 0 0 0 0 0 0 0 0 0 0 0 0 0
0 0 0 0 0 0 0 0 0 0 0 0 0 0 0 0 0 0 0 0 0 0 0 0 0 0 0 0 0 0 0 0 0 0 0 0 0 0 0 0 0 0 0
0 0 0 0 0 0 0 0 0 0 0 0 0 0 0 0 0 0 0 0 0 0 0 0 0 0 0 0 0 0 0 0 0 0 0 0 0 0 0 0 0 0 0
0 0 0 0 0 0 0 0 0 0 0 0 0 0 0 0 0 0 0 0 0 0 0 0 0 0 0 0 0 0 0 0 0 0 0 0 0 0 0 0 0 0 0
0 0 0 0 0 0 0 0 0 0 0 0 0 0 0 0 0 0 0 0 0 0 0 0 0 0 0 0 0 0 0 0 0 0 0 0 0 0 0 0 0 0 0
0 0 0 0 0 0 0 0 0 0 0 0 0 0 0 0 0 0 0 0 0 0 0 0 0 0 0 0 0 0 0 0 0 0 0 0 0 0 0 0 0 0 0
0 0 0 0 0 0 0 0 0 0 0 0 0 0 0 0 0 0 0 0 0 0 0 0 0 0 0 0 0 0 0 0 0 0 0 0 0 0 0 0 0 0 0
-0 0 0 0 0 0 0 0 0 0 0 0 0 0 0 0 0 0 0 0 0 0 0 0 0 0 0 0 0 0 0 0 0 0 0 0 0 0 0 0 0 0 0
-0 -0 0 0 0 0 0 0 0 0 0 0 0 0 0 0 0 0 0 0 0 0 0 0 0 0 0 0 0 0 0 0 0 0 0 0 0 0 0 0 0 0 0
-0 -0 -0 -0 -0 0 0 0 0 0 0 0 0 0 0 0 0 0 0 0 0 0 0 0 0 0 0 0 0 0 0 0 0 0 0 0 0 0 0 0 0 0 0
0 0 0 0 0 0 0 0 0 0 0 0 0 0 0 0 0 0 0 0 0 0 0 0 0 0 0 0 0 0 0 0 0 0 0 0 0 0 0 0 0 0 0
Wind_Speed_500mb
9 10 15 29 34 36 39 40 38 36 35 34 32 30 29 28 27 29 31 32 33 33 29 26 24 23 18 14 6 6 7 10 15 16 16 15 15 17 18 18 19 17 17
11 12 14 27 33 35 37 39 38 37 36 35 34 32 31 30 29 32 35 34 33 32 29 27 24 22 18 11 9 11 10 12 12 14 13 12 11 11 11 11 11 12 10
23 13 21 29 32 36 37 39 38 38 38 37 35 33 32 31 31 33 37 39 36 34 33 31 28 25 19 16 15 14 13 12 11 11 9 12 10 7 7 6 8 8 8
37 21 24 30 34 37 39 39 40 40 38 37 36 35 34 33 33 34 36 39 39 36 33 32 31 27 22 20 18 16 15 13 11 9 9 11 7 5 7 6 3 4 7
38 29 29 32 35 37 38 41 41 41 40 38 37 35 35 35 35 35 36 38 39 38 35 35 33 28 26 23 19 17 16 15 12 10 10 9 10 12 10 7 4 3 6
32 28 29 33 38 42 44 40 41 43 42 41 39 37 36 37 37 37 37 38 38 36 33 32 32 30 27 23 19 16 16 15 13 11 11 10 11 16 11 9 9 6 6
41 31 33 36 41 44 46 48 47 46 45 44 41 40 39 39 38 38 38 38 37 35 32 30 31 32 29 25 20 17 15 15 15 15 14 14 15 17 17 13 10 8 6
45 40 33 38 45 50 52 51 51 51 50 48 45 43 40 39 39 39 39 40 39 37 36 32 32 33 33 28 22 16 13 15 16 21 23 21 24 22 20 16 12 10 8
49 47 40 36 42 52 57 57 57 56 55 53 50 47 44 42 41 41 42 43 44 43 42 38 37 35 36 31 23 17 15 16 18 24 26 27 28 26 25 18 15 11 10
43 40 38 34 38 46 57 64 63 61 60 58 55 52 48 45 44 45 45 46 47 46 44 42 38 37 34 35 28 22 20 20 22 26 29 33 31 31 27 22 17 14 12
41 37 44 47 44 37 47 60 66 65 62 61 59 57 53 52 52 52 52 51 50 49 47 44 44 43 43 41 36 30 27 27 27 30 32 33 33 32 29 23 19 16 15
50 45 43 46 44 43 46 47 62 69 69 65 62 60 63 60 58 60 59 56 54 53 52 50 50 49 49 49 48 38 35 34 34 34 34 34 34 32 30 25 22 20 18
46 42 42 42 38 40 44 49 53 65 73 75 70 69 65 57 56 64 64 64 62 61 59 58 55 57 60 59 53 44 42 40 40 39 38 35 35 32 32 28 26 23 20
55 50 48 45 43 35 38 42 49 58 67 76 82 76 74 73 76 69 67 66 70 67 67 65 63 59 60 58 55 51 48 45 44 42 40 37 35 33 34 31 28 26 23
55 56 53 47 42 36 36 41 47 52 66 70 76 87 85 86 89 86 83 79 77 76 73 69 64 63 63 59 58 55 52 49 47 45 42 39 37 36 35 34 32 30 26
54 52 56 54 51 48 36 38 46 51 59 72 74 80 88 93 92 95 92 88 84 82 79 71 69 71 65 63 59 55 52 50 48 47 44 44 41 40 39 38 36 33 30
63 60 62 63 53 46 45 39 39 50 61 66 76 77 83 89 95 95 97 94 93 88 84 74 73 77 72 65 63 57 53 51 50 49 48 47 45 44 42 40 39 37 32
65 66 64 66 66 60 53 49 47 42 54 66 69 75 81 87 90 94 100 96 95 95 92 87 80 76 71 67 63 59 55 53 51 51 51 49 49 47 45 44 44 41 36
66 63 63 62 65 67 58 56 54 54 50 58 67 75 81 87 88 92 97 100 97 97 99 92 89 83 78 73 67 60 59 54 53 54 55 53 51 50 48 48 47 46 42
66 65 59 57 58 62 61 56 57 55 44 51 62 75 78 83 88 91 95 95 100 100 101 97 96 90 84 77 69 65 60 58 56 56 57 56 55 52 51 51 51 51 47
64 66 68 64 57 58 59 59 55 53 53 52 53 63 73 83 87 90 93 94 100 109 97 99 93 96 92 83 75 67 60 59 59 61 61 61 60 57 56 55 56 58 51
68 70 66 67 64 56 55 59 61 61 59 61 59 58 68 82 87 93 94 98 98 104 95 100 102 102 99 92 86 64 42 52 65 69 68 67 66 63 62 62 61 59 55
71 73 71 68 67 63 57 57 59 61 58 62 63 66 66 76 88 90 96 100 101 99 105 102 111 104 106 99 92 63 25 26 36 62 76 72 71 69 68 66 65 61 59
73 69 70 66 63 65 61 57 55 61 68 62 60 71 68 69 84 91 88 100 102 100 104 107 104 105 103 112 100 97 65 43 25 22 56 78 79 77 74 72 69 65 62
67 70 71 69 64 60 63 59 56 56 60 70 70 64 82 66 83 88 88 97 98 100 111 98 102 95 113 115 113 100 99 74 63 36 29 49 77 84 80 76 71 69 66
62 75 77 75 69 64 61 60 57 55 57 61 65 66 72 82 75 94 88 95 95 95 97 107 110 80 101 114 107 104 97 101 91 72 56 39 42 60 83 79 75 72 69
Wind_Direction_500mb
279 297 205 195 198 194 193 195 195 197 200 201 201 201 200 200 196 190 184 181 180 177 178 181 181 186 184 179 203 179 157 145 129 126 120 114 110 108 106 106 104 108 110
326 280 216 203 203 201 197 200 201 205 208 210 209 208 207 204 200 194 192 185 183 184 183 184 190 194 202 225 213 186 170 148 133 130 125 130 129 118 115 120 128 125 132
331 259 217 208 208 206 204 204 206 209 212 214 216 215 212 208 203 198 197 200 200 201 202 202 203 215 224 230 199 189 182 170 159 147 135 123 138 132 128 138 140 143 143
335 290 234 218 214 213 211 211 210 212 215 216 217 216 214 212 208 205 203 203 207 208 209 214 217 221 225 209 196 190 190 188 184 173 146 146 153 183 194 206 169 145 125
332 316 256 231 226 223 218 216 216 217 218 217 217 217 218 218 216 214 211 209 210 214 221 221 219 213 201 198 197 197 202 204 202 195 186 176 166 209 210 199 233 250 200
325 308 292 252 233 232 229 227 222 221 220 220 220 221 222 222 220 218 215 212 210 213 212 206 199 195 198 200 202 205 211 213 214 209 200 215 170 217 223 251 267 261 236
347 312 281 256 243 237 236 232 229 227 224 223 224 224 224 222 218 216 212 208 200 197 196 199 197 200 205 205 207 213 220 228 228 229 226 224 204 233 247 262 273 275 253
343 343 310 278 254 244 240 237 234 233 231 229 227 227 226 224 221 216 210 204 198 197 202 211 210 211 213 209 210 221 236 247 245 245 244 243 241 246 253 263 273 272 256
326 324 326 310 276 258 246 242 238 236 235 235 232 230 228 225 222 217 213 208 206 205 210 217 222 225 221 214 213 228 246 259 263 259 251 245 248 253 260 264 264 257 247
333 333 337 328 303 277 258 249 244 240 239 236 236 235 233 230 226 221 217 215 214 215 218 220 221 225 222 217 219 232 248 259 267 271 259 246 246 250 257 257 258 249 246
334 332 318 311 309 309 284 261 251 247 243 242 239 237 235 231 227 223 221 220 219 220 221 223 227 228 225 223 231 241 252 260 267 272 267 253 245 246 252 254 250 247 246
327 320 321 311 301 296 286 279 263 251 242 240 239 235 232 231 229 227 225 224 223 223 224 226 230 232 228 233 235 243 254 263 269 271 265 253 245 243 248 247 245 243 241
336 334 334 329 310 287 280 277 267 258 248 240 237 236 234 228 228 229 227 224 222 223 225 228 229 234 238 235 236 245 257 262 266 268 261 249 242 239 243 244 242 242 241
335 334 331 332 328 306 277 267 263 261 255 246 241 235 233 232 232 230 227 225 224 225 224 228 232 233 233 231 239 251 258 261 265 265 258 244 237 234 240 242 241 239 235
323 323 321 324 323 318 294 268 262 257 256 254 245 244 237 237 237 236 234 232 229 229 228 231 231 227 228 236 246 253 256 259 261 260 252 241 235 235 238 241 240 240 232
327 321 316 315 314 313 305 281 261 260 255 253 253 248 243 239 237 239 237 236 233 234 232 231 235 228 233 242 251 250 254 257 256 254 246 239 236 236 236 237 239 239 232
328 322 318 314 310 306 302 287 271 258 256 252 250 251 250 244 238 238 239 236 237 235 234 228 236 233 236 242 249 247 252 255 252 249 242 238 236 236 236 236 236 237 235
327 325 319 312 308 304 298 290 273 260 252 251 250 249 250 249 244 241 239 240 234 234 233 228 229 236 241 244 245 247 252 254 251 246 240 236 235 236 233 233 234 237 238
335 328 322 319 311 307 300 290 284 268 255 251 249 246 247 247 249 244 244 241 233 235 233 231 227 233 239 242 244 245 251 253 249 243 239 235 235 234 233 232 234 237 239
339 332 325 322 318 312 308 298 284 277 270 258 249 248 246 247 246 245 245 244 235 243 236 233 231 231 235 240 241 241 246 250 247 242 239 237 235 234 232 233 232 235 238
351 339 332 326 321 319 315 311 297 282 262 248 254 252 246 246 247 245 245 245 236 240 242 234 233 235 233 233 232 232 239 245 246 242 238 237 236 235 233 232 232 234 238
353 351 342 332 327 323 318 314 311 300 282 266 247 243 252 246 247 245 243 242 243 243 241 234 231 235 228 230 226 226 228 241 242 241 238 237 237 235 234 233 233 235 236
355 353 351 343 332 326 319 314 310 304 295 284 260 253 255 247 247 246 244 243 244 244 245 238 232 235 234 229 228 225 201 220 232 240 239 238 237 235 234 233 234 234 235
355 352 351 353 341 331 326 319 315 310 306 297 283 248 247 249 247 245 242 244 243 242 247 245 237 237 232 233 227 230 225 227 204 224 232 232 233 233 233 233 233 233 235
353 353 353 353 352 341 332 329 322 315 307 300 294 278 244 246 250 243 246 242 241 242 243 241 235 234 235 238 239 230 226 220 228 219 220 228 230 230 231 231 232 233 234
354 356 357 356 354 352 343 338 331 323 317 311 303 290 260 242 252 246 245 240 245 246 242 242 237 233 238 234 241 234 236 223 232 226 226 221 227 231 232 230 231 232 233
Wind_Speed_850mb
9 10 15 29 34 36 39 40 38 36 35 34 32 30 29 28 27 29 31 32 33 33 29 26 24 23 18 14 6 6 7 10 15 16 16 15 15 17 18 18 19 17 17
11 12 14 27 33 35 37 39 38 37 36 35 34 32 31 30 29 32 35 34 33 32 29 27 24 22 18 11 9 11 10 12 12 14 13 12 11 11 11 11 11 12 10
23 13 21 29 32 36 37 39 38 38 38 37 35 33 32 31 31 33 37 39 36 34 33 31 28 25 19 16 15 14 13 12 11 11 9 12 10 7 7 6 8 8 8
37 21 24 30 34 37 39 39 40 40 38 37 36 35 34 33 33 34 36 39 39 36 33 32 31 27 22 20 18 16 15 13 11 9 9 11 7 5 7 6 3 4 7
38 29 29 32 35 37 38 41 41 41 40 38 37 35 35 35 35 35 36 38 39 38 35 35 33 28 26 23 19 17 16 15 12 10 10 9 10 12 10 7 4 3 6
32 28 29 33 38 42 44 40 41 43 42 41 39 37 36 37 37 37 37 38 38 36 33 32 32 30 27 23 19 16 16 15 13 11 11 10 11 16 11 9 9 6 6
41 31 33 36 41 44 46 48 47 46 45 44 41 40 39 39 38 38 38 38 37 35 32 30 31 32 29 25 20 17 15 15 15 15 14 14 15 17 17 13 10 8 6
45 40 33 38 45 50 52 51 51 51 50 48 45 43 40 39 39 39 39 40 39 37 36 32 32 33 33 28 22 16 13 15 16 21 23 21 24 22 20 16 12 10 8
49 47 40 36 42 52 57 57 57 56 55 53 50 47 44 42 41 41 42 43 44 43 42 38 37 35 36 31 23 17 15 16 18 24 26 27 28 26 25 18 15 11 10
43 40 38 34 38 46 57 64 63 61 60 58 55 52 48 45 44 45 45 46 47 46 44 42 38 37 34 35 28 22 20 20 22 26 29 33 31 31 27 22 17 14 12
41 37 44 47 44 37 47 60 66 65 62 61 59 57 53 52 52 52 52 51 50 49 47 44 44 43 43 41 36 30 27 27 27 30 32 33 33 32 29 23 19 16 15
50 45 43 46 44 43 46 47 62 69 69 65 62 60 63 60 58 60 59 56 54 53 52 50 50 49 49 49 48 38 35 34 34 34 34 34 34 32 30 25 22 20 18
46 42 42 42 38 40 44 49 53 65 73 75 70 69 65 57 56 64 64 64 62 61 59 58 55 57 60 59 53 44 42 40 40 39 38 35 35 32 32 28 26 23 20
55 50 48 45 43 35 38 42 49 58 67 76 82 76 74 73 76 69 67 66 70 67 67 65 63 59 60 58 55 51 48 45 44 42 40 37 35 33 34 31 28 26 23
55 56 53 47 42 36 36 41 47 52 66 70 76 87 85 86 89 86 83 79 77 76 73 69 64 63 63 59 58 55 52 49 47 45 42 39 37 36 35 34 32 30 26
54 52 56 54 51 48 36 38 46 51 59 72 74 80 88 93 92 95 92 88 84 82 79 71 69 71 65 63 59 55 52 50 48 47 44 44 41 40 39 38 36 33 30
63 60 62 63 53 46 45 39 39 50 61 66 76 77 83 89 95 95 97 94 93 88 84 74 73 77 72 65 63 57 53 51 50 49 48 47 45 44 42 40 39 37 32
65 66 64 66 66 60 53 49 47 42 54 66 69 75 81 87 90 94 100 96 95 95 92 87 80 76 71 67 63 59 55 53 51 51 51 49 49 47 45 44 44 41 36
66 63 63 62 65 67 58 56 54 54 50 58 67 75 81 87 88 92 97 100 97 97 99 92 89 83 78 73 67 60 59 54 53 54 55 53 51 50 48 48 47 46 42
66 65 59 57 58 62 61 56 57 55 44 51 62 75 78 83 88 91 95 95 100 100 101 97 96 90 84 77 69 65 60 58 56 56 57 56 55 52 51 51 51 51 47
64 66 68 64 57 58 59 59 55 53 53 52 53 63 73 83 87 90 93 94 100 109 97 99 93 96 92 83 75 67 60 59 59 61 61 61 60 57 56 55 56 58 51
68 70 66 67 64 56 55 59 61 61 59 61 59 58 68 82 87 93 94 98 98 104 95 100 102 102 99 92 86 64 42 52 65 69 68 67 66 63 62 62 61 59 55
71 73 71 68 67 63 57 57 59 61 58 62 63 66 66 76 88 90 96 100 101 99 105 102 111 104 106 99 92 63 25 26 36 62 76 72 71 69 68 66 65 61 59
73 69 70 66 63 65 61 57 55 61 68 62 60 71 68 69 84 91 88 100 102 100 104 107 104 105 103 112 100 97 65 43 25 22 56 78 79 77 74 72 69 65 62
67 70 71 69 64 60 63 59 56 56 60 70 70 64 82 66 83 88 88 97 98 100 111 98 102 95 113 115 113 100 99 74 63 36 29 49 77 84 80 76 71 69 66
62 75 77 75 69 64 61 60 57 55 57 61 65 66 72 82 75 94 88 95 95 95 97 107 110 80 101 114 107 104 97 101 91 72 56 39 42 60 83 79 75 72 69
Wind_Direction_850mb
279 297 205 195 198 194 193 195 195 197 200 201 201 201 200 200 196 190 184 181 180 177 178 181 181 186 184 179 203 179 157 145 129 126 120 114 110 108 106 106 104 108 110
326 280 216 203 203 201 197 200 201 205 208 210 209 208 207 204 200 194 192 185 183 184 183 184 190 194 202 225 213 186 170 148 133 130 125 130 129 118 115 120 128 125 132
331 259 217 208 208 206 204 204 206 209 212 214 216 215 212 208 203 198 197 200 200 201 202 202 203 215 224 230 199 189 182 170 159 147 135 123 138 132 128 138 140 143 143
335 290 234 218 214 213 211 211 210 212 215 216 217 216 214 212 208 205 203 203 207 208 209 214 217 221 225 209 196 190 190 188 184 173 146 146 153 183 194 206 169 145 125
332 316 256 231 226 223 218 216 216 217 218 217 217 217 218 218 216 214 211 209 210 214 221 221 219 213 201 198 197 197 202 204 202 195 186 176 166 209 210 199 233 250 200
325 308 292 252 233 232 229 227 222 221 220 220 220 221 222 222 220 218 215 212 210 213 212 206 199 195 198 200 202 205 211 213 214 209 200 215 170 217 223 251 267 261 236
347 312 281 256 243 237 236 232 229 227 224 223 224 224 224 222 218 216 212 208 200 197 196 199 197 200 205 205 207 213 220 228 228 229 226 224 204 233 247 262 273 275 253
343 343 310 278 254 244 240 237 234 233 231 229 227 227 226 224 221 216 210 204 198 197 202 211 210 211 213 209 210 221 236 247 245 245 244 243 241 246 253 263 273 272 256
326 324 326 310 276 258 246 242 238 236 235 235 232 230 228 225 222 217 213 208 206 205 210 217 222 225 221 214 213 228 246 259 263 259 251 245 248 253 260 264 264 257 247
333 333 337 328 303 277 258 249 244 240 239 236 236 235 233 230 226 221 217 215 214 215 218 220 221 225 222 217 219 232 248 259 267 271 259 246 246 250 257 257 258 249 246
334 332 318 311 309 309 284 261 251 247 243 242 239 237 235 231 227 223 221 220 219 220 221 223 227 228 225 223 231 241 252 260 267 272 267 253 245 246 252 254 250 247 246
327 320 321 311 301 296 286 279 263 251 242 240 239 235 232 231 229 227 225 224 223 223 224 226 230 232 228 233 235 243 254 263 269 271 265 253 245 243 248 247 245 243 241
336 334 334 329 310 287 280 277 267 258 248 240 237 236 234 228 228 229 227 224 222 223 225 228 229 234 238 235 236 245 257 262 266 268 261 249 242 239 243 244 242 242 241
335 334 331 332 328 306 277 267 263 261 255 246 241 235 233 232 232 230 227 225 224 225 224 228 232 233 233 231 239 251 258 261 265 265 258 244 237 234 240 242 241 239 235
323 323 321 324 323 318 294 268 262 257 256 254 245 244 237 237 237 236 234 232 229 229 228 231 231 227 228 236 246 253 256 259 261 260 252 241 235 235 238 241 240 240 232
327 321 316 315 314 313 305 281 261 260 255 253 253 248 243 239 237 239 237 236 233 234 232 231 235 228 233 242 251 250 254 257 256 254 246 239 236 236 236 237 239 239 232
328 322 318 314 310 306 302 287 271 258 256 252 250 251 250 244 238 238 239 236 237 235 234 228 236 233 236 242 249 247 252 255 252 249 242 238 236 236 236 236 236 237 235
327 325 319 312 308 304 298 290 273 260 252 251 250 249 250 249 244 241 239 240 234 234 233 228 229 236 241 244 245 247 252 254 251 246 240 236 235 236 233 233 234 237 238
335 328 322 319 311 307 300 290 284 268 255 251 249 246 247 247 249 244 244 241 233 235 233 231 227 233 239 242 244 245 251 253 249 243 239 235 235 234 233 232 234 237 239
339 332 325 322 318 312 308 298 284 277 270 258 249 248 246 247 246 245 245 244 235 243 236 233 231 231 235 240 241 241 246 250 247 242 239 237 235 234 232 233 232 235 238
351 339 332 326 321 319 315 311 297 282 262 248 254 252 246 246 247 245 245 245 236 240 242 234 233 235 233 233 232 232 239 245 246 242 238 237 236 235 233 232 232 234 238
353 351 342 332 327 323 318 314 311 300 282 266 247 243 252 246 247 245 243 242 243 243 241 234 231 235 228 230 226 226 228 241 242 241 238 237 237 235 234 233 233 235 236
355 353 351 343 332 326 319 314 310 304 295 284 260 253 255 247 247 246 244 243 244 244 245 238 232 235 234 229 228 225 201 220 232 240 239 238 237 235 234 233 234 234 235
355 352 351 353 341 331 326 319 315 310 306 297 283 248 247 249 247 245 242 244 243 242 247 245 237 237 232 233 227 230 225 227 204 224 232 232 233 233 233 233 233 233 235
353 353 353 353 352 341 332 329 322 315 307 300 294 278 244 246 250 243 246 242 241 242 243 241 235 234 235 238 239 230 226 220 228 219 220 228 230 230 231 231 232 233 234
354 356 357 356 354 352 343 338 331 323 317 311 303 290 260 242 252 246 245 240 245 246 242 242 237 233 238 234 241 234 236 223 232 226 226 221 227 231 232 230 231 232 233